Find OneWeb SL0448

NORAD ID: 51641 Int'l Des: 2022-012 Owner: ONEWEBN Country: UK Constellation: oneweb operational
LEOCIRCULARPOLARONEWEB_TYPE

当前视图

正在加载3D地球...

About OneWeb SL0448

OneWeb SL0448 (NORAD 51641) is a oneweb constellation satellite launched Feb 10, 2022 by ONEWEBN of UK. It operates in LEO, CIRCULAR, POLAR, ONEWEB_TYPE orbit with a mass of 148.00 kg.

关于 OneWeb SL0448

正在加载描述...

即将过境

Passes for default location (London). Set your location on the main map for personalized predictions.

高度历史

Loading altitude history...

两行轨道根数

1 51641U 22012V 26169.85571606 -.00001786 00000-0 -51599-2 0 9991
2 51641 87.8820 35.9478 0001827 83.4416 276.6919 13.10283129209519
Epoch: Jun 18, 2026 • Age: 9 hours

当前状态

高度 1224.8 km
速度 7.24 km/s
星下点 28.70°N, 41.86°E
发射日期 Feb 10, 2022
运行时间 4.3 years
类型 internet

技术详情

分类 Payload
质量 148.00 kg
干质量 140.00 kg
总质量 148.00 kg
长度 1.30 m
直径 1.00 m
跨度 5.00 m
形状 Trapezoid+2 pan
制造商 ONEWUS
平台类型 ARROW
阶段状态 In Orbit
所有者/国家 ONEWEBN/UK

Most Searched